Location: Newark
(7.1028°S, 35.3258°W)
Time: 10:29:13
(UTC+00:00)

Vanguard 2 - All Passes

Search period start: 19 February 2020 00:00
Search period end: 29 February 2020 00:00
Orbit: 552 x 2939 km, 32.9° (Epoch: 19 February)

Date Brightness Start Highest point End Pass type
(mag) Time Alt. Az. Time Alt. Az. Time Alt. Az.
19 Feb - 01:21:39 10° WSW 01:26:32 81° NW 01:34:24 10° NE night (unlit)
19 Feb - 03:31:32 10° WNW 03:36:51 21° NNW 03:44:13 10° NNE night (unlit)
19 Feb - 10:17:25 10° N 10:27:17 17° NNE 10:36:25 10° ENE daylight
19 Feb - 12:26:36 10° NNW 12:42:11 42° NNE 12:53:17 10° E daylight
19 Feb - 14:39:14 10° WNW 14:54:08 79° SW 15:03:00 10° SE daylight
19 Feb - 16:56:19 10° W 17:03:54 22° SW 17:09:17 10° SSE daylight
19 Feb - 23:32:54 10° SSW 23:36:14 22° SE 23:40:19 10° E visible
20 Feb - 01:39:43 10° WSW 01:44:36 49° NNW 01:52:14 10° NE night (unlit)
20 Feb - 03:51:35 10° NW 03:55:36 14° NNW 04:00:31 10° N night (unlit)
20 Feb - 10:34:07 10° NNW 10:46:32 22° NNE 10:57:30 10° ENE daylight
20 Feb - 12:44:09 10° NW 13:00:40 55° NNE 13:11:56 10° ESE daylight
20 Feb - 14:57:52 10° WNW 15:12:06 60° SW 15:20:43 10° SE daylight
20 Feb - 17:16:44 10° WSW 17:22:02 16° SSW 17:26:12 10° S daylight
20 Feb - 23:50:08 10° SW 23:54:03 40° SE 23:59:14 10° ENE visible
21 Feb - 01:58:11 10° W 02:02:50 30° NNW 02:09:40 10° NNE night (unlit)
21 Feb - 08:46:04 10° N 08:49:08 11° NNE 08:52:14 10° NNE daylight
21 Feb - 10:51:06 10° NNW 11:05:29 29° NNE 11:17:40 10° E daylight
21 Feb - 13:01:57 10° NW 13:18:59 70° NE 13:30:15 10° ESE daylight
21 Feb - 15:16:54 10° WNW 15:30:02 45° SW 15:38:16 10° SE daylight
21 Feb - 17:38:16 10° SW 17:40:23 11° SSW 17:42:19 10° SSW daylight
22 Feb - 00:07:43 10° SW 00:11:52 76° SE 00:17:38 10° ENE night (unlit)
22 Feb - 02:17:13 10° WNW 02:21:14 19° NNW 02:26:35 10° NNE night (unlit)
22 Feb - 09:00:45 10° N 09:08:48 14° NNE 09:16:55 10° NE daylight
22 Feb - 11:08:18 10° NNW 11:24:11 38° NNE 11:37:08 10° E daylight
22 Feb - 13:20:01 10° NW 13:37:10 89° NE 13:48:18 10° SE daylight
22 Feb - 15:36:23 10° W 15:48:01 33° SW 15:55:42 10° SSE daylight
22 Feb - 22:19:19 10° S 22:21:34 14° SSE 22:23:53 10° ESE visible
23 Feb - 00:25:40 10° WSW 00:29:47 57° NNW 00:35:34 10° NE night (unlit)
23 Feb - 02:37:32 10° NW 02:39:48 12° NNW 02:42:23 10° N night (unlit)
23 Feb - 09:17:04 10° NNW 09:28:06 20° NNE 09:39:02 10° ENE daylight
23 Feb - 11:25:43 10° NW 11:42:43 49° NE 11:56:05 10° ESE daylight
23 Feb - 13:38:24 10° WNW 13:55:15 73° SW 14:06:09 10° SE daylight
23 Feb - 15:56:20 10° W 16:06:10 25° SSW 16:13:03 10° SSE daylight
23 Feb - 22:36:12 10° SSW 22:39:33 26° SSE 22:43:11 10° E visible
24 Feb - 00:44:00 10° W 00:47:51 31° NNW 00:53:03 10° NNE night (unlit)
24 Feb - 09:33:49 10° NNW 09:47:05 26° NNE 09:59:54 10° E daylight
24 Feb - 11:43:21 10° NW 12:01:05 63° NE 12:14:38 10° ESE daylight
24 Feb - 13:57:10 10° WNW 14:13:18 57° SW 14:23:52 10° SE daylight
24 Feb - 16:16:45 10° WSW 16:24:30 19° SSW 16:30:18 10° SSE daylight
24 Feb - 22:53:36 10° SW 22:57:27 51° SE 23:01:46 10° ENE visible
25 Feb - 01:02:57 10° WNW 01:06:05 18° NNW 01:09:57 10° NNE night (unlit)
25 Feb - 07:46:51 10° NNE 07:50:26 11° NNE 07:54:09 10° NE visible
25 Feb - 09:50:51 10° NNW 10:05:46 34° NNE 10:19:54 10° E daylight
25 Feb - 12:01:13 10° NW 12:19:20 79° NE 12:32:52 10° ESE daylight
25 Feb - 14:16:20 10° W 14:31:23 44° SW 14:41:27 10° SE daylight
25 Feb - 16:37:35 10° SW 16:43:03 14° SSW 16:47:28 10° S daylight
25 Feb - 21:05:10 10° S 21:06:43 12° SSE 21:08:11 10° SE visible
25 Feb - 23:11:23 10° WSW 23:15:19 77° NW 23:19:50 10° NE visible
26 Feb - 08:01:28 10° N 08:09:44 15° NNE 08:18:37 10° ENE visible
26 Feb - 10:08:05 10° NNW 10:24:16 44° NE 10:39:14 10° E daylight
26 Feb - 12:19:21 10° WNW 12:37:31 84° SW 12:50:55 10° SE daylight
26 Feb - 14:35:56 10° W 14:49:35 35° SSW 14:59:00 10° SSE daylight
26 Feb - 16:58:48 10° SW 17:01:48 11° SSW 17:04:27 10° S daylight
26 Feb - 21:21:40 10° SSW 21:24:57 20° SSE 21:27:55 10° ESE visible
26 Feb - 23:29:34 10° WSW 23:33:14 36° NNW 23:37:27 10° NE visible
27 Feb - 08:17:42 10° N 08:28:41 21° NNE 08:40:34 10° ENE daylight
27 Feb - 10:25:32 10° NW 10:42:37 56° NE 10:58:06 10° ESE daylight
27 Feb - 12:37:50 10° WNW 12:55:40 68° SW 13:08:45 10° SE daylight
27 Feb - 14:55:59 10° W 15:07:57 27° SSW 15:16:31 10° SSE daylight
27 Feb - 21:38:57 10° SW 21:43:02 36° SSE 21:46:41 10° E visible
27 Feb - 23:48:22 10° WNW 23:51:15 19° NNW 23:54:28 10° NNE visible
28 Feb - 08:34:26 10° NNW 08:47:20 29° NE 09:01:19 10° E daylight
28 Feb - 10:43:13 10° NW 11:00:52 70° NE 11:16:35 10° ESE daylight
28 Feb - 12:56:40 10° WNW 13:13:51 55° SW 13:26:31 10° SE daylight
28 Feb - 15:16:24 10° WSW 15:26:32 22° SSW 15:34:05 10° SSE daylight
28 Feb - 19:49:17 10° S 19:51:40 12° SSE 19:53:44 10° SE daylight
28 Feb - 21:56:37 10° SW 22:00:59 74° SSE 22:04:55 10° ENE visible
